Simultaneous Nadir Overpasses (SNOs) Predictions

Prediction of SNOs between AQUA and METOP-C Satellite Orbit:

Table of predicted SNOs for the next 14.0 days since TLE Epoch: 7/1/2023
Index Date (AQUA) Time (AQUA) Lat,Lon (AQUA) SZA (AQUA ) Date (METOP-C) Time (METOP-C) Lat,Lon (METOP-C) SZA (METOP-C ) Distance(km) Time Diff (sec)
1 07/03/2023 14:42:54 74.58, -44.81 51.62 07/03/2023 14:42:25 74.55, -44.78 51.59 3.21 29
2 07/03/2023 15:32:18 -74.61, 122.77 128.35 07/03/2023 15:33:06 -74.64, 122.78 128.32 3.51 48
3 07/06/2023 07:46:01 -74.50,-120.37 128.22 07/06/2023 07:44:48 -74.47,-120.59 128.23 7.17 73
4 07/06/2023 08:35:28 74.58, 47.07 51.87 07/06/2023 08:35:24 74.60, 47.09 51.89 2.01 4
5 07/06/2023 09:24:53 -74.66,-145.47 128.05 07/06/2023 09:26:06 -74.64,-145.47 128.07 1.72 73
6 07/09/2023 01:38:35 -74.54, -28.57 127.88 07/09/2023 01:37:46 -74.56, -28.60 127.85 3.06 49
7 07/09/2023 02:28:02 74.63, 138.85 52.22 07/09/2023 02:28:23 74.64, 138.95 52.23 3.47 21
8 07/11/2023 19:31:09 -74.61, 63.14 127.45 07/11/2023 19:30:45 -74.60, 63.25 127.46 3.56 24
9 07/11/2023 20:20:35 74.66,-129.33 52.60 07/11/2023 20:21:23 74.63,-129.33 52.57 3.07 48
10 07/14/2023 12:34:15 74.56, -12.50 52.89 07/14/2023 12:33:02 74.54, -12.50 52.87 3.24 73
11 07/14/2023 13:23:40 -74.63, 155.00 127.04 07/14/2023 13:23:43 -74.63, 155.07 127.04 2.13 3



Historial Predications of SNOs between AQUA and METOP-C
